Latest Coastal Weather Observations for Rundle Island

IDQ60701

Issued at 12:31 am EST Tuesday 6 December 2016 (issued every 10 minutes, with the page automatically refreshed every 10 minutes)

About coastal observations | Map of coastal stations | Coastal observations for QLD | Marine services | Other Formats
Station Details ID: 039322 Name: RUNDLE ISLAND Lat: -23.53 Lon: 151.28 Height: 19.8 m
Data from the previous 72 hours. | See also: Recent months at Rundle Island
Date/Time
EST
Temp
°C
Wind Pressure Rain since
9am
mm
Weather Cloud Vis
km
Sea
Height
m
Swell
Dir  Spd
kts
Gust
kts
hPa Trend Height
m
Period
s
Dir
06/12:30am 25.6 NNE 12 13 1013.8 - - - - - - - - -
06/12:00am 25.4 NNE 12 14 1013.8 - - - - - - - - -
 
Date/Time
EST
Temp
°C
Wind Pressure Rain since
9am
mm
Weather Cloud Vis
km
Sea
Height
m
Swell
Dir  Spd
kts
Gust
kts
hPa Trend Height
m
Period
s
Dir
05/11:30pm 25.6 NNE 12 14 1014.0 - - - - - - - - -
05/11:00pm 25.7 NNE 14 16 1014.1 - - - - - - - - -
05/10:30pm 25.7 NNE 12 14 1014.4 - - - - - - - - -
05/10:00pm 25.7 NNE 13 15 1014.5 - - - - - - - - -
05/09:30pm 25.7 NNE 14 15 1014.3 - - - - - - - - -
05/09:00pm 25.7 NNE 14 15 1014.3 - - - - - - - - -
05/08:30pm 25.8 NNE 13 16 1014.2 - - - - - - - - -
05/08:00pm 25.9 NNE 12 14 1014.1 - - - - - - - - -
05/07:30pm 25.9 NNE 13 15 1013.8 - - - - - - - - -
05/07:00pm 25.9 NNE 13 15 1013.5 - - - - - - - - -
05/06:30pm 26.1 NNE 12 15 1013.4 - - - - - - - - -
05/06:00pm 26.2 NNE 10 12 1013.4 - - - - - - - - -
05/05:30pm 26.4 NNE 10 12 1013.1 - - - - - - - - -
05/05:00pm 26.4 NNE 11 13 1012.8 - - - - - - - - -
05/04:30pm 26.5 NNE 11 13 1012.8 - - - - - - - - -
05/04:00pm 26.8 NNE 10 12 1012.7 - - - - - - - - -
05/03:30pm 26.9 NNE 11 13 1012.9 - - - - - - - - -
05/03:00pm 27.2 NNE 11 13 1013.1 - - - - - - - - -
05/02:30pm 26.9 NNE 10 12 1013.3 - - - - - - - - -
05/02:00pm 27.2 NNE 11 14 1013.4 - - - - - - - - -
05/01:30pm 26.6 NNE 9 11 1014.1 - - - - - - - - -
05/01:00pm 26.3 NNE 10 11 1014.4 - - - - - - - - -
05/12:30pm 27.0 NNE 9 11 1014.7 - - - - - - - - -
05/12:00pm 26.8 NNE 7 9 1015.1 - - - - - - - - -
05/11:30am 26.5 N 8 9 1015.4 - - - - - - - - -
05/11:00am 26.3 N 8 9 1015.8 - - - - - - - - -
05/10:30am 26.0 N 6 8 1016.0 - - - - - - - - -
05/10:00am 26.0 N 6 8 1016.1 - - - - - - - - -
05/09:30am 26.0 N 7 8 1016.3 - - - - - - - - -
05/09:00am 26.0 NNE 7 10 1016.3 - - - - - - - - -
05/08:30am 26.1 NNE 8 10 1016.3 - - - - - - - - -
05/08:00am 26.0 NNE 9 11 1016.3 - - - - - - - - -
05/07:30am 25.9 NE 9 12 1016.3 - - - - - - - - -
05/07:00am 25.6 NNE 8 10 1016.3 - - - - - - - - -
05/06:30am 25.5 NE 10 12 1015.8 - - - - - - - - -
05/06:00am 25.5 NE 9 11 1015.5 - - - - - - - - -
05/05:30am 25.3 NE 9 11 1015.1 - - - - - - - - -
05/05:00am 25.3 NE 9 11 1014.8 - - - - - - - - -
05/04:30am 25.2 NE 9 11 1014.3 - - - - - - - - -
05/04:00am 25.2 NE 9 11 1014.2 - - - - - - - - -
05/03:30am 25.2 NE 10 11 1014.0 - - - - - - - - -
05/03:00am 25.5 NNE 10 11 1013.8 - - - - - - - - -
05/02:30am 25.3 NE 11 13 1013.9 - - - - - - - - -
05/02:00am 25.2 NE 11 12 1013.8 - - - - - - - - -
05/01:30am 25.4 NE 10 12 1014.1 - - - - - - - - -
05/01:00am 25.4 NNE 11 12 1014.2 - - - - - - - - -
05/12:30am 25.5 NE 10 11 1014.4 - - - - - - - - -
05/12:00am 25.5 NNE 10 11 1014.6 - - - - - - - - -
 
Date/Time
EST
Temp
°C
Wind Pressure Rain since
9am
mm
Weather Cloud Vis
km
Sea
Height
m
Swell
Dir  Spd
kts
Gust
kts
hPa Trend Height
m
Period
s
Dir
04/11:30pm 25.6 NNE 9 11 1014.9 - - - - - - - - -
04/11:00pm 25.7 NNE 9 11 1014.8 - - - - - - - - -
04/10:30pm 25.7 NNE 11 13 1014.9 - - - - - - - - -
04/10:00pm 25.7 NNE 12 13 1014.9 - - - - - - - - -
04/09:30pm 25.8 NNE 11 14 1014.9 - - - - - - - - -
04/09:00pm 26.0 NNE 12 14 1014.8 - - - - - - - - -
04/08:30pm 26.0 NNE 11 13 1014.6 - - - - - - - - -
04/08:00pm 25.9 N 12 14 1014.3 - - - - - - - - -
04/07:30pm 25.9 NNE 14 15 1013.5 - - - - - - - - -
04/07:00pm 25.9 NNE 14 16 1013.3 - - - - - - - - -
04/06:30pm 26.2 NNE 14 16 1013.1 - - - - - - - - -
04/06:00pm 26.3 NNE 14 16 1012.9 - - - - - - - - -
04/05:30pm 26.3 NNE 13 15 1012.7 - - - - - - - - -
04/05:00pm 26.4 NNE 13 15 1012.7 - - - - - - - - -
04/04:30pm 26.9 NNE 13 14 1012.8 - - - - - - - - -
04/04:00pm 26.8 NNE 12 15 1012.6 - - - - - - - - -
04/03:30pm 26.9 NNE 13 14 1012.8 - - - - - - - - -
04/03:00pm 26.9 NNE 12 15 1012.9 - - - - - - - - -
04/02:30pm 26.6 N 12 14 1013.0 - - - - - - - - -
04/02:00pm 26.6 NNE 13 15 1013.2 - - - - - - - - -
04/01:30pm 27.1 NNE 12 13 1013.7 - - - - - - - - -
04/01:00pm 26.6 N 11 13 1014.0 - - - - - - - - -
04/12:30pm 26.3 N 10 11 1014.7 - - - - - - - - -
04/12:00pm 26.2 N 10 12 1015.2 - - - - - - - - -
04/11:30am 26.5 N 10 11 1015.5 - - - - - - - - -
04/11:00am 26.5 N 10 11 1016.0 - - - - - - - - -
04/10:30am 26.4 N 10 12 1016.1 - - - - - - - - -
04/10:00am 26.2 N 10 11 1016.2 - - - - - - - - -
04/09:30am 26.2 N 9 10 1016.4 - - - - - - - - -
04/09:00am 25.9 N 9 11 1016.2 - - - - - - - - -
04/08:30am 26.1 N 8 9 1016.1 - - - - - - - - -
04/08:00am 26.0 N 8 9 1015.7 - - - - - - - - -
04/07:30am 25.9 N 8 9 1015.6 - - - - - - - - -
04/07:00am 25.7 N 7 9 1015.5 - - - - - - - - -
04/06:30am 25.6 N 8 9 1015.1 - - - - - - - - -
04/06:00am 25.6 N 10 11 1014.6 - - - - - - - - -
04/05:30am 25.5 N 12 13 1014.0 - - - - - - - - -
04/05:00am 25.5 N 14 17 1013.5 - - - - - - - - -
04/04:30am 25.6 NNE 13 16 1013.9 - - - - - - - - -
04/04:00am 25.8 NNE 17 19 1013.0 - - - - - - - - -
04/03:30am 25.6 NNE 23 27 1011.9 - - - - - - - - -
04/03:00am 25.4 NE 26 31 1011.6 - - - - - - - - -
04/02:43am 25.4 ENE 23 28 1012.6 - - - - - - - - -
04/02:30am 25.4 E 23 26 1013.9 - - - - - - - - -
04/02:00am 25.5 ESE 20 24 1015.7 - - - - - - - - -
04/01:30am 25.6 ESE 19 21 1016.9 - - - - - - - - -
04/01:00am 25.7 SE 18 21 1017.7 - - - - - - - - -
04/12:30am 25.8 ESE 17 19 1017.5 - - - - - - - - -
04/12:00am 25.9 E 10 13 1017.8 - - - - - - - - -
 
Date/Time
EST
Temp
°C
Wind Pressure Rain since
9am
mm
Weather Cloud Vis
km
Sea
Height
m
Swell
Dir  Spd
kts
Gust
kts
hPa Trend Height
m
Period
s
Dir
03/11:56pm 25.8 NE 9 13 1017.0 - - - - - - - - -
03/11:30pm 25.8 N 13 15 1015.0 - - - - - - - - -
03/11:00pm 25.7 NNE 16 19 1014.5 - - - - - - - - -
03/10:30pm 25.8 NNE 14 16 1015.1 - - - - - - - - -
03/10:00pm 25.9 NNE 15 17 1014.8 - - - - - - - - -
03/09:30pm 25.9 N 13 16 1014.6 - - - - - - - - -
03/09:00pm 25.9 N 14 17 1013.8 - - - - - - - - -
03/08:30pm 25.8 N 17 19 1013.1 - - - - - - - - -
03/08:00pm 25.9 NNE 16 18 1013.0 - - - - - - - - -
03/07:30pm 25.9 NNE 15 17 1013.1 - - - - - - - - -
03/07:00pm 26.0 N 14 16 1012.9 - - - - - - - - -
03/06:30pm 26.1 N 13 15 1013.0 - - - - - - - - -
03/06:00pm 26.0 NNE 14 16 1012.6 - - - - - - - - -
03/05:30pm 26.2 NNE 14 16 1012.4 - - - - - - - - -
03/05:00pm 26.7 NNE 15 17 1012.3 - - - - - - - - -
03/04:30pm 26.4 NNE 15 17 1011.9 - - - - - - - - -
03/04:00pm 26.8 NNE 15 18 1012.0 - - - - - - - - -
03/03:30pm 26.9 NNE 15 17 1012.2 - - - - - - - - -
03/03:00pm 27.1 NNE 13 16 1012.5 - - - - - - - - -
03/02:30pm 27.1 NNE 12 15 1012.9 - - - - - - - - -
03/02:00pm 26.9 NNE 13 15 1013.2 - - - - - - - - -
03/01:30pm 26.9 NNE 12 15 1013.4 - - - - - - - - -
03/01:00pm 26.8 NNE 13 15 1013.7 - - - - - - - - -
03/12:30pm 27.0 NNE 13 15 1013.9 - - - - - - - - -
03/12:00pm 26.7 NNE 13 15 1014.1 - - - - - - - - -
03/11:30am 26.8 NNE 12 14 1014.4 - - - - - - - - -
03/11:00am 26.3 NNE 9 11 1014.8 - - - - - - - - -
03/10:30am 26.5 NNE 9 11 1015.1 - - - - - - - - -
03/10:00am 26.3 N 10 12 1015.2 - - - - - - - - -
03/09:30am 26.1 N 10 11 1015.1 - - - - - - - - -
03/09:00am 26.0 N 8 9 1015.3 - - - - - - - - -
03/08:30am 25.9 N 8 9 1015.3 - - - - - - - - -
03/08:00am 26.0 N 8 10 1015.1 - - - - - - - - -
03/07:30am 25.9 NNW 8 9 1014.9 - - - - - - - - -
03/07:00am 25.8 NNW 8 11 1014.8 - - - - - - - - -
03/06:30am 25.8 NNW 9 11 1014.2 - - - - - - - - -
03/06:00am 25.6 NNW 11 13 1013.8 - - - - - - - - -
03/05:30am 25.5 N 14 16 1012.4 - - - - - - - - -
03/05:00am 25.6 N 13 15 1012.4 - - - - - - - - -
03/04:30am 25.6 N 13 14 1012.2 - - - - - - - - -
03/04:00am 25.6 N 12 14 1011.9 - - - - - - - - -
03/03:30am 25.7 N 13 15 1011.7 - - - - - - - - -
03/03:00am 25.6 N 13 15 1011.6 - - - - - - - - -
03/02:30am 25.6 N 12 14 1011.6 - - - - - - - - -
03/02:00am 25.6 N 14 16 1011.5 - - - - - - - - -
03/01:30am 25.6 N 14 16 1011.7 - - - - - - - - -
03/01:00am 25.7 N 14 15 1011.9 - - - - - - - - -

Other Formats:

Comma delimited format used in spreadsheet applications
http://www.bom.gov.au/fwo/IDQ60701/IDQ60701.94378.axf

JavaScript Object Notation format (JSON) in row-major order
http://www.bom.gov.au/fwo/IDQ60701/IDQ60701.94378.json